[[{"header":{"parameterUnit":"m.s-1","parameterCategory":1,"la1":30.2991,"la2":30.254,"lo1":-89.0895,"lo2":-89.0444,"dy":0.0017,"dx":0.0017,"nx":28,"ny":28,"refTime":"2023-11-15T09:00:00:Z","depth":0,"parameterNumber":2,"parameterNumberName":"U-component_of_WINDS"},"data":[0,0,0,0,0,0,0,0,0,0,0,0,0,0,0,0,0,0,0,0,0,0,0,0,0,0,0,0,0,0,0,0,0,0,0,0,0,0,0,0,0,0,0,0,0,0,0,0,0,0,0,0,0,0,0,0,0,0,-4.9316,-4.9316,0,-4.9318,-4.9318,-4.9318,-4.9216,-4.9213,-4.921,-4.9208,-4.9209,-4.9211,-4.9214,0,0,0,0,0,0,0,0,0,0,0,0,0,-4.9221,-4.9223,-4.9316,-4.9316,-4.9316,-4.9318,-4.9318,-4.9318,-4.9216,-4.9213,-4.9209,-4.9206,-4.9208,-4.9211,-4.9214,0,0,0,0,0,0,0,0,0,0,0,0,0,-4.9247,-4.9224,-4.9316,-4.9265,-4.9261,-4.9318,-4.9318,-4.9318,-4.9217,-4.9213,-4.9209,-4.9205,-4.9207,-4.9211,-4.9214,-4.932,0,0,-4.9226,-4.9228,0,0,0,0,0,0,0,0,-4.9245,-4.925,-4.9272,-4.9269,-4.9264,-4.9262,-4.9285,-4.9319,-4.9218,-4.9233,-4.9207,-4.9203,-4.923,-4.9232,-4.9241,-4.932,-4.932,-4.9227,-4.9229,-4.9231,-4.9232,0,0,0,0,0,0,0,-4.9243,-4.9249,-4.9316,-4.9273,-4.9268,-4.9242,-4.9241,-4.9291,-4.9254,-4.9232,-4.9224,-4.9226,-4.9227,-4.9237,-4.924,-4.932,-4.9226,-4.923,-4.9232,-4.9234,-4.9487,-4.9491,0,0,0,0,0,0,-4.9249,-4.9249,-4.9316,-4.9317,-4.9244,-4.9247,-4.9246,-4.9267,-4.9254,-4.9248,-4.923,-4.9221,-4.9233,-4.9236,-4.924,-4.9363,-4.923,-4.9234,-4.9236,-4.9483,-4.9488,-4.9493,0,0,0,0,0,0,-4.9247,-4.9256,-4.9316,-4.9281,-4.9286,-4.9253,-4.9277,-4.9269,-4.928,-4.9252,-4.9245,-4.9248,-4.923,-4.9234,-4.9301,-4.9362,-4.9236,-4.9239,-4.9477,-4.9484,-4.949,-4.9611,0,0,0,0,0,0,-4.9245,-4.9256,-4.9296,-4.9282,-4.9289,-4.9379,-4.9281,-4.9272,-4.9287,-4.9276,-4.9267,-4.9261,-4.9227,-4.9296,-4.9305,-4.9365,-4.9242,-4.9472,-4.948,-4.9488,-4.9602,-4.9621,-4.9638,0,0,0,0,0,-4.9242,-4.9329,-4.9299,-4.9307,-4.9338,-4.9382,-4.9386,-4.9345,-4.9292,-4.9332,-4.9314,-4.9262,-4.9354,-4.9304,-4.9313,-4.9375,-4.9468,-4.9478,-4.9488,-4.9593,-4.9617,-4.9637,0,0,0,0,0,0,-4.935,-4.9327,-4.9292,-4.9378,-4.9383,-4.9365,-4.9414,-4.9371,-4.939,-4.9379,-4.9327,-4.9326,-4.9401,-4.9394,-4.9339,-4.9477,-4.9401,-4.9414,-4.9479,-4.9501,-4.9519,-4.9519,-4.9246,0,0,0,0,0,-4.9384,-4.9423,-4.9399,-4.9477,-4.9482,-4.9448,-4.9465,-4.9433,-4.9436,-4.9437,-4.9424,-4.9429,-4.9458,-4.9479,-4.9505,-4.96,-4.9597,-4.9647,-4.9665,-4.968,-4.9692,-4.9742,-4.9764,-4.9525,-4.9525,-4.9525,0,0,-4.9455,-4.9447,-4.9474,-4.9499,-4.9499,-4.954,-4.945,-4.9496,-4.9526,-4.9444,-4.9507,-4.9498,-4.9499,-4.9581,-4.9616,-4.9577,-4.9757,-4.9693,-4.9705,-4.9708,-4.9755,-4.9777,-4.9797,-4.9532,-4.9531,-4.953,0,0,-4.9604,-4.9602,-4.9667,-4.9669,-4.967,-4.9647,-4.9663,-4.9652,-4.9643,-4.9705,-4.9645,-4.9679,-4.9731,-4.9735,-4.9743,-4.9895,-4.9848,-4.9905,-5.0,-5.0049,-5.0068,-5.0085,-5.014,-5.016,-4.9916,-4.9917,-4.9917,0,-4.9691,-4.975,-4.9705,-4.9756,-4.9769,-4.9698,-4.9764,-4.9767,-4.9777,-4.9788,-4.9745,-4.981,-4.9805,-4.9887,-4.9925,-4.9934,-4.995,-4.9906,-5.0069,-5.0085,-5.01,-5.0152,-5.0172,-4.9924,-4.9923,-4.9922,-4.9921,0,-4.9858,-4.99,-4.9952,-4.9965,-4.9983,-5.0042,-5.0005,-5.0029,-4.9996,-4.9978,-5.0042,-5.0034,-5.0058,-5.0075,-5.0042,-5.0153,-5.0129,-5.0079,-5.0002,-5.0131,-5.0178,-5.0198,-4.9934,-4.9931,-4.9929,-4.9927,0,0,-5.0076,-5.0063,-5.0083,-5.0088,-5.0085,-5.0116,-5.0171,-5.0195,-5.0217,-5.0226,-5.0271,-5.0317,-5.0271,-5.0281,-5.0248,-5.0292,-5.0414,-5.0236,-5.0235,-5.027,-5.0536,-5.0574,-5.0598,-5.0382,-5.0386,-5.0388,-5.0536,0,-5.0221,-5.0315,-5.0276,-5.0373,-5.0412,-5.0345,-5.0392,-5.0396,-5.038,-5.041,-5.0392,-5.0426,-5.0362,-5.0368,-5.0408,-5.0391,-5.0467,-5.0379,-5.0423,-5.0426,-5.0426,-5.0623,-5.0663,-5.0803,-5.0554,-5.0557,-5.0559,0,-5.0403,-5.0421,-5.0523,-5.0514,-5.0528,-5.0572,-5.0591,-5.062,-5.0623,-5.0608,-5.062,-5.0578,-5.0631,-5.0554,-5.0626,-5.0568,-5.0584,-5.0578,-5.0582,-5.0585,-5.0501,-5.0632,-5.0846,-5.0867,-5.0588,-5.0586,-5.0584,0,-5.0553,-5.0602,-5.067,-5.0676,-5.0667,-5.0699,-5.0697,-5.0695,-5.0712,-5.0728,-5.0739,-5.0761,-5.0773,-5.0791,-5.0756,-5.0704,-5.0834,-5.0754,-5.0823,-5.0825,-5.0854,-5.0853,-5.1075,-5.0864,-5.0863,-5.0863,-5.0863,0,-5.072,-5.0785,-5.0737,-5.0778,-5.0849,-5.0804,-5.0875,-5.0865,-5.0864,-5.0902,-5.0845,-5.0882,-5.0833,-5.0865,-5.0837,-5.0902,-5.0908,-5.0898,-5.089,-5.0903,-5.0905,-5.0913,-5.0902,-5.0869,-5.0867,-5.0866,-5.0865,0,-5.0899,-5.087,-5.0939,-5.0925,-5.0923,-5.0976,-5.0963,-5.1001,-5.0981,-5.103,-5.1039,-5.1008,-5.1043,-5.101,-5.1043,-5.1024,-5.1111,-5.1089,-5.1111,-5.1105,-5.1176,-5.117,-5.1412,-5.1441,-5.1211,-5.1213,-5.1215,0,-5.1008,-5.1057,-5.1048,-5.107,-5.1071,-5.1107,-5.1124,-5.1082,-5.1102,-5.1109,-5.1146,-5.1176,-5.1198,-5.1257,-5.1238,-5.1263,-5.1241,-5.1324,-5.1244,-5.1256,-5.1243,-5.124,-5.1245,-5.134,-5.1343,-5.1345,-5.1347,0,-5.1205,-5.1188,-5.1215,-5.1239,-5.1261,-5.1277,-5.1288,-5.1309,-5.1265,-5.1291,-5.1326,-5.1344,-5.1378,-5.1409,-5.1428,-5.1424,-5.1379,-5.1372,-5.1389,-5.1404,-5.1415,-5.1411,-5.1155,-5.1367,-5.1365,-5.1363,-5.1362,-5.1361,-5.1352,-5.1393,-5.1393,-5.1426,-5.143,-5.1442,-5.1477,-5.1463,-5.1492,-5.1517,-5.1489,-5.1533,-5.1534,-5.1555,-5.1558,-5.1591,-5.1556,-5.1581,-5.1587,-5.1594,-5.1605,-5.141,-5.1594,-5.1593,-5.1593,-5.1592,-5.1592,0,-5.1546,-5.1544,-5.1574,-5.1593,-5.1619,-5.1574,-5.1584,-5.1609,-5.1648,-5.1653,-5.1676,-5.1717,-5.1747,-5.1731,-5.1756,-5.1786,-5.1766,-5.1795,-5.1792,-5.1792,-5.1635,-5.1617,-5.1811,-5.181,-5.181,-5.181,-5.181,-5.181,-5.165,-5.1716,-5.17,-5.1768,-5.1764,-5.1807,-5.1817,-5.1828,-5.1832,-5.188,-5.1905,-5.1894,-5.1891,-5.1916,-5.1941,-5.1936,-5.1948,-5.1984,-5.1971,-5.1825,-5.1803,-5.1783,-5.1766,-5.1987,-5.1987,-5.2126,-5.2127,-5.2128]},{"header":{"parameterUnit":"m.s-1","parameterCategory":1,"la1":30.2991,"la2":30.254,"lo1":-89.0895,"lo2":-89.0444,"dy":0.0017,"dx":0.0017,"nx":28,"ny":28,"refTime":"2023-11-15T09:00:00:Z","depth":0,"parameterNumber":3,"parameterNumberName":"V-component_of_WINDS"},"data":[0,0,0,0,0,0,0,0,0,0,0,0,0,0,0,0,0,0,0,0,0,0,0,0,0,0,0,0,0,0,0,0,0,0,0,0,0,0,0,0,0,0,0,0,0,0,0,0,0,0,0,0,0,0,0,0,0,0,-8.5637,-8.5638,0,-8.5757,-8.5758,-8.5759,-8.5654,-8.5649,-8.5645,-8.5641,-8.5756,-8.5763,-8.577,0,0,0,0,0,0,0,0,0,0,0,0,0,-8.5307,-8.5314,-8.5636,-8.5638,-8.5639,-8.5757,-8.5758,-8.576,-8.5655,-8.5649,-8.5644,-8.5639,-8.5754,-8.5762,-8.577,0,0,0,0,0,0,0,0,0,0,0,0,0,-8.5441,-8.5316,-8.5636,-8.5601,-8.5599,-8.5756,-8.5758,-8.576,-8.5656,-8.5649,-8.5643,-8.5637,-8.5751,-8.5761,-8.5772,-8.5967,0,0,-8.5804,-8.5809,0,0,0,0,0,0,0,0,-8.5433,-8.5453,-8.5605,-8.5604,-8.5602,-8.5684,-8.5684,-8.5829,-8.5657,-8.5634,-8.5641,-8.5633,-8.5737,-8.5748,-8.5784,-8.5972,-8.5977,-8.5805,-8.5811,-8.5816,-8.5819,0,0,0,0,0,0,0,-8.5424,-8.5447,-8.5684,-8.5607,-8.5605,-8.5577,-8.5589,-8.5711,-8.572,-8.5635,-8.5628,-8.5644,-8.5735,-8.5775,-8.5786,-8.5979,-8.5805,-8.5814,-8.5821,-8.5825,-8.6331,-8.6337,0,0,0,0,0,0,-8.542,-8.544,-8.568,-8.5687,-8.55,-8.5588,-8.5601,-8.5664,-8.5718,-8.5721,-8.565,-8.5639,-8.576,-8.5774,-8.579,-8.6021,-8.5816,-8.5826,-8.5832,-8.6324,-8.6332,-8.634,0,0,0,0,0,0,-8.5413,-8.5442,-8.5675,-8.5562,-8.5589,-8.5601,-8.5672,-8.567,-8.571,-8.5729,-8.5729,-8.569,-8.5755,-8.5775,-8.5924,-8.6024,-8.5831,-8.584,-8.6315,-8.6326,-8.6336,-8.6486,0,0,0,0,0,0,-8.5404,-8.544,-8.5517,-8.5565,-8.5596,-8.581,-8.5678,-8.5677,-8.5729,-8.5716,-8.5767,-8.5769,-8.5752,-8.5909,-8.5935,-8.6035,-8.5849,-8.6306,-8.632,-8.6333,-8.6472,-8.6501,-8.6525,0,0,0,0,0,-8.5393,-8.5552,-8.5521,-8.5551,-8.5692,-8.5816,-8.5833,-8.5813,-8.5738,-8.5813,-8.5825,-8.5767,-8.6009,-8.5925,-8.5953,-8.6058,-8.63,-8.6316,-8.6332,-8.6461,-8.6495,-8.6524,0,0,0,0,0,0,-8.5513,-8.5558,-8.5524,-8.5704,-8.5758,-8.5798,-8.5892,-8.585,-8.5924,-8.5908,-8.5877,-8.5889,-8.6046,-8.6067,-8.5972,-8.6249,-8.6142,-8.6164,-8.623,-8.6263,-8.6289,-8.628,-8.5857,0,0,0,0,0,-8.5561,-8.5661,-8.5694,-8.585,-8.5878,-8.5882,-8.5934,-8.5914,-8.5967,-8.5988,-8.6011,-8.6062,-8.6149,-8.6207,-8.6289,-8.6475,-8.6483,-8.6561,-8.6587,-8.6609,-8.6628,-8.6727,-8.6761,-8.6392,-8.6392,-8.6392,0,0,-8.566,-8.5697,-8.5762,-8.5875,-8.5914,-8.6015,-8.5901,-8.6013,-8.6087,-8.6004,-8.6147,-8.6166,-8.622,-8.6388,-8.6463,-8.641,-8.6732,-8.6629,-8.6646,-8.6654,-8.6747,-8.6782,-8.6813,-8.6403,-8.6401,-8.6399,0,0,-8.5893,-8.5932,-8.6066,-8.6108,-8.6169,-8.617,-8.6203,-8.625,-8.626,-8.6404,-8.6343,-8.6429,-8.6581,-8.6622,-8.6663,-8.6912,-8.686,-8.6939,-8.7076,-8.7172,-8.7202,-8.7227,-8.7315,-8.7347,-8.6958,-8.6959,-8.6959,0,-8.6008,-8.6161,-8.6139,-8.6257,-8.6308,-8.624,-8.6374,-8.6415,-8.6499,-8.6534,-8.6474,-8.6663,-8.6694,-8.6871,-8.6932,-8.6968,-8.7002,-8.6933,-8.72,-8.7225,-8.7249,-8.7332,-8.7365,-8.6968,-8.6967,-8.6966,-8.6965,0,-8.6299,-8.6406,-8.6507,-8.6593,-8.6654,-8.678,-8.6774,-8.6839,-8.6814,-8.682,-8.6966,-8.7002,-8.7089,-8.713,-8.7105,-8.7303,-8.7268,-8.7205,-8.7096,-8.7293,-8.7371,-8.7403,-8.6981,-8.6978,-8.6975,-8.6973,0,0,-8.661,-8.6684,-8.6721,-8.6759,-8.6822,-8.6903,-8.7024,-8.7112,-8.7168,-8.7227,-8.7326,-8.7457,-8.7399,-8.7445,-8.7424,-8.7509,-8.7703,-8.7435,-8.7435,-8.7483,-8.7922,-8.7969,-8.8007,-8.7669,-8.7675,-8.768,-8.7917,0,-8.6845,-8.7059,-8.7043,-8.7244,-8.7342,-8.7279,-8.7384,-8.7432,-8.7442,-8.7524,-8.7532,-8.7625,-8.7542,-8.7569,-8.7651,-8.7662,-8.779,-8.7645,-8.7759,-8.7763,-8.7747,-8.8047,-8.8097,-8.8319,-8.7947,-8.7953,-8.7956,0,-8.7147,-8.7221,-8.7433,-8.7481,-8.7522,-8.7617,-8.7696,-8.7777,-8.7829,-8.7829,-8.7882,-8.7847,-8.7966,-8.7856,-8.8018,-8.7919,-8.7965,-8.7977,-8.7985,-8.7994,-8.7871,-8.8064,-8.839,-8.8423,-8.8004,-8.8,-8.7997,0,-8.7353,-8.7504,-8.7651,-8.7685,-8.7745,-8.7814,-8.7841,-8.7888,-8.7942,-8.801,-8.8045,-8.8125,-8.8169,-8.8231,-8.8217,-8.8138,-8.8382,-8.8271,-8.8384,-8.8385,-8.8438,-8.8434,-8.8775,-8.8469,-8.8468,-8.8467,-8.8467,0,-8.7616,-8.7748,-8.7744,-8.7834,-8.7979,-8.7958,-8.8101,-8.812,-8.8162,-8.8252,-8.8202,-8.8287,-8.8264,-8.8347,-8.8337,-8.8472,-8.8492,-8.8494,-8.8489,-8.8499,-8.8498,-8.8527,-8.8511,-8.8476,-8.8474,-8.8473,-8.8471,0,-8.7869,-8.7873,-8.8028,-8.8073,-8.8087,-8.8192,-8.8229,-8.8312,-8.8318,-8.8432,-8.8458,-8.8466,-8.8561,-8.8554,-8.8661,-8.8653,-8.8821,-8.8798,-8.8804,-8.8799,-8.8912,-8.8902,-8.9283,-8.9331,-8.8994,-8.8998,-8.9,0,-8.8037,-8.8138,-8.8195,-8.8253,-8.8286,-8.8381,-8.8437,-8.8419,-8.8479,-8.8547,-8.8621,-8.8713,-8.8785,-8.8941,-8.8954,-8.9035,-8.9013,-8.9141,-8.9025,-8.903,-8.9014,-8.9008,-8.9017,-8.9164,-8.9167,-8.9171,-8.9173,0,-8.8335,-8.8331,-8.8416,-8.8501,-8.857,-8.8635,-8.8694,-8.8744,-8.8732,-8.8801,-8.89,-8.8957,-8.9067,-8.9158,-8.9235,-8.926,-8.9215,-8.921,-8.924,-8.925,-8.9249,-8.925,-8.8866,-8.9201,-8.9198,-8.9196,-8.9195,-8.9194,-8.855,-8.8636,-8.869,-8.8785,-8.8829,-8.8886,-8.8967,-8.8983,-8.9067,-8.9157,-8.9141,-8.9252,-8.93,-8.9399,-8.9432,-8.9516,-8.947,-8.9514,-8.9525,-8.9536,-8.9549,-8.9237,-8.953,-8.9529,-8.9528,-8.9528,-8.9527,0,-8.8844,-8.8876,-8.8964,-8.905,-8.9125,-8.9079,-8.9142,-8.9206,-8.9306,-8.9356,-8.9429,-8.9542,-8.963,-8.9651,-8.9734,-8.9798,-8.9779,-8.982,-8.9815,-8.9821,-8.9586,-8.9551,-8.9834,-8.9834,-8.9834,-8.9834,-8.9834,-8.9834,-8.9006,-8.9149,-8.9152,-8.9316,-8.9346,-8.9457,-8.9497,-8.9548,-8.9588,-8.9718,-8.9792,-8.9806,-8.9844,-8.993,-9.0008,-9.0011,-9.0044,-9.0093,-9.0089,-8.9868,-8.9838,-8.9808,-8.9775,-9.0101,-9.0101,-9.0316,-9.0318,-9.032]}]]